Cold Bay, AK

3:20 AM AKDT on September 21, 2017 (GMT -0800)
Cold Bay

Weather History for PACD - December, 2012

Change the Weather History Date:

Thursday, December 27, 2012

  Actual Average Record
Temperature  
Mean Temperature 31 °F 30 °F  
Max Temperature 34 °F 34 °F 45 °F (1984)
Min Temperature 27 °F 25 °F 2 °F (1986)
Degree Days  
Heating Degree Days 34 35  
Month to date heating degree days 909  
Since 1 July heating degree days 4300 3929  
Cooling Degree Days 0 0  
Month to date cooling degree days 0  
Year to date cooling degree days 0  
Moisture  
Dew Point 27 °F    
Average Humidity 0    
Maximum Humidity 0    
Minimum Humidity 0    
Precipitation  
Precipitation 0.12 in 0.13 in 1.28 in (1990)
Month to date precipitation 2.83 3.97  
Year to date precipitation 43.22 41.18  
Snow  
Snow 1.20 in 0.50 in 4.80 in (1948)
Month to date snowfall 5.9 10.8  
Since 1 July snowfall 14.9 23.4  
Snow Depth 1.00 in    
Sea Level Pressure  
Sea Level Pressure 29.04 in    
Wind  
Wind Speed 17 mph (SW)    
Max Wind Speed 29 mph    
Max Gust Speed 33 mph    
Visibility 6 miles    
Events Snow    
T = Trace of Precipitation, MM = Missing Value Source: NWS Daily Summary

Daily Weather History Graph

Daily Weather History Graph

Search for Another Location

Airport or City:

Trip Planner

Search our weather history database for the weather conditions in past years. The results will help you decide how hot, cold, wet, or windy it might be!

Date:

Astronomy

Dec. 27, 2012 Rise Set
Actual Time 10:17 AM AKST 5:27 PM AKST
Civil Twilight 9:31 AM AKST 6:13 PM AKST
Nautical Twilight 8:43 AM AKST 7:01 PM AKST
Astronomical Twilight 7:59 AM AKST 7:45 PM AKST
Moon 5:28 PM AKST (12/27) 9:30 AM AKST (12/27)
Length of Visible Light 8h 41m
Length of Day
7h 10m
Full, 100% of the Moon is Illuminated
Dec 27
Full
Dec 28
Full
Jan 4
Last Quarter
Jan 11
New
Jan 18
First Quarter

Hourly Weather History & Observations

Time (AKST) Temp. Windchill Dew Point Humidity Pressure Visibility Wind Dir Wind Speed Gust Speed Precip Events Conditions
12:39 AM 30.2 °F 17.4 °F 28.4 °F 93% 28.89 in 10.0 mi West 20.7 mph - 0.00 in   Overcast
12:53 AM 30.9 °F 17.8 °F 28.9 °F 92% 28.90 in 10.0 mi WNW 23.0 mph 28.8 mph 0.00 in   Overcast
1:32 AM 30.2 °F 17.1 °F 28.4 °F 93% 28.91 in 8.0 mi West 21.9 mph - 0.00 in   Overcast
1:53 AM 30.9 °F 18.1 °F 28.0 °F 89% 28.92 in 9.0 mi WNW 21.9 mph - 0.00 in Snow Light Snow
3:51 AM 30.2 °F 16.5 °F 26.6 °F 86% 28.97 in 3.0 mi West 24.2 mph - 0.00 in Snow Light Snow
3:53 AM 30.0 °F 17.5 °F 27.0 °F 88% 28.98 in 3.0 mi West 19.6 mph - 0.00 in Snow Light Snow
4:09 AM 30.2 °F 17.1 °F 28.4 °F 93% 28.98 in 3.0 mi West 21.9 mph - 0.00 in Snow Light Snow
4:24 AM 30.2 °F 17.4 °F 26.6 °F 86% 28.98 in 5.0 mi West 20.7 mph - 0.00 in Snow Light Snow
4:53 AM 30.0 °F 17.2 °F 27.0 °F 88% 28.99 in 3.0 mi West 20.7 mph - 0.00 in Snow Light Snow
5:21 AM 30.2 °F 17.8 °F 28.4 °F 93% 29.00 in 3.0 mi West 19.6 mph 25.3 mph 0.00 in Snow Light Snow
5:53 AM 30.0 °F 17.2 °F 28.0 °F 92% 29.01 in 3.0 mi West 20.7 mph 29.9 mph 0.00 in Snow Light Snow
6:11 AM 30.2 °F 17.4 °F 28.4 °F 93% 29.02 in 5.0 mi West 20.7 mph - 0.00 in Snow Light Snow
6:53 AM 30.0 °F 18.3 °F 28.0 °F 92% 29.03 in 9.0 mi West 17.3 mph - 0.00 in Snow Light Snow
7:32 AM 30.2 °F 17.8 °F 26.6 °F 86% 29.03 in 4.0 mi West 19.6 mph - 0.00 in Snow Light Snow
7:53 AM 30.9 °F 18.1 °F 27.0 °F 85% 29.04 in 9.0 mi West 21.9 mph - 0.00 in Snow Light Snow
8:53 AM 30.0 °F 17.2 °F 26.1 °F 85% 29.05 in 10.0 mi West 20.7 mph 25.3 mph 0.00 in Snow Light Snow
9:22 AM 30.2 °F 17.8 °F 26.6 °F 86% 29.06 in 2.5 mi West 19.6 mph 28.8 mph 0.00 in Snow Light Snow
9:29 AM 30.2 °F 17.1 °F 26.6 °F 86% 29.06 in 9.0 mi West 21.9 mph - 0.00 in   Overcast
9:53 AM 30.0 °F 19.5 °F 27.0 °F 88% 29.08 in 9.0 mi West 13.8 mph - 0.00 in Snow Light Snow
10:53 AM 30.0 °F 20.0 °F 28.0 °F 92% 29.09 in 9.0 mi WSW 12.7 mph - 0.00 in Snow Light Snow
11:22 AM 30.2 °F 19.3 °F 28.4 °F 93% 29.10 in 2.5 mi West 15.0 mph - 0.00 in Snow Light Snow
11:37 AM 30.2 °F 18.9 °F 28.4 °F 93% 29.11 in 9.0 mi WSW 16.1 mph - 0.01 in   Mostly Cloudy
11:53 AM 30.9 °F 19.8 °F 28.0 °F 89% 29.11 in 6.0 mi West 16.1 mph - 0.01 in Snow Light Snow
12:53 PM 30.9 °F 19.8 °F 28.9 °F 92% 29.11 in 4.0 mi WSW 16.1 mph - 0.00 in Snow Light Snow
1:13 PM 30.2 °F 19.3 °F 28.4 °F 93% 29.09 in 1.8 mi WSW 15.0 mph - 0.00 in Snow Light Snow
1:20 PM 32.0 °F 20.8 °F 28.4 °F 87% 29.09 in 3.0 mi WSW 17.3 mph - 0.00 in Snow Light Snow
1:53 PM 32.0 °F 21.2 °F 28.9 °F 88% 29.09 in 9.0 mi WSW 16.1 mph 21.9 mph 0.00 in   Overcast
2:53 PM 33.1 °F 22.6 °F 27.0 °F 78% 29.12 in 10.0 mi SSW 16.1 mph - N/A   Overcast
3:11 PM 33.8 °F 25.3 °F 26.6 °F 75% 29.11 in 10.0 mi SSW 11.5 mph - N/A   Mostly Cloudy
3:53 PM 32.0 °F 24.2 °F 24.1 °F 73% 29.10 in 10.0 mi SW 9.2 mph - N/A   Mostly Cloudy
4:53 PM 30.9 °F 25.2 °F 24.1 °F 76% 29.11 in 10.0 mi SSW 5.8 mph - N/A   Overcast
5:08 PM 30.2 °F 24.3 °F 21.2 °F 69% 29.09 in 10.0 mi SE 5.8 mph - N/A   Mostly Cloudy
5:19 PM 30.2 °F 24.3 °F 23.0 °F 75% 29.08 in 9.0 mi East 5.8 mph - N/A   Scattered Clouds
5:53 PM 30.0 °F 21.1 °F 23.0 °F 75% 29.09 in 10.0 mi SE 10.4 mph - N/A   Clear
6:53 PM 28.0 °F 19.3 °F 21.0 °F 75% 29.08 in 10.0 mi SSE 9.2 mph - N/A   Clear
7:53 PM 32.0 °F 20.1 °F 25.0 °F 75% 29.05 in 10.0 mi SSE 19.6 mph 25.3 mph N/A   Overcast
8:53 PM 30.9 °F 18.4 °F 26.1 °F 82% 29.05 in 7.0 mi SE 20.7 mph - 0.00 in Snow Light Snow
9:06 PM 30.2 °F 20.2 °F 26.6 °F 86% 29.05 in 6.0 mi SSE 12.7 mph - 0.00 in Snow Light Snow
9:21 PM 30.2 °F 19.8 °F 26.6 °F 86% 29.04 in 1.5 mi SSE 13.8 mph - 0.00 in Snow Light Snow
9:33 PM 32.0 °F 19.5 °F 28.4 °F 87% 29.04 in 1.2 mi SE 21.9 mph 29.9 mph 0.01 in Snow Light Snow
9:38 PM 32.0 °F 20.1 °F 28.4 °F 87% 29.03 in 2.0 mi SE 19.6 mph - 0.02 in Snow Light Snow
9:46 PM 32.0 °F 20.8 °F 28.4 °F 87% 29.03 in 1.2 mi SE 17.3 mph - 0.02 in Snow Light Snow
9:53 PM 32.0 °F 20.5 °F 28.9 °F 88% 29.03 in 2.0 mi SE 18.4 mph - 0.02 in Snow Light Snow
10:05 PM 32.0 °F 21.2 °F 30.2 °F 93% 29.02 in 1.5 mi SE 16.1 mph - 0.01 in Snow Light Snow
10:20 PM 32.0 °F 19.5 °F 30.2 °F 93% 29.00 in 1.8 mi SE 21.9 mph 28.8 mph 0.02 in Snow Light Snow
10:24 PM 32.0 °F 19.2 °F 30.2 °F 93% 29.00 in 2.0 mi SE 23.0 mph 28.8 mph 0.02 in Snow Light Snow
10:46 PM 32.0 °F 19.8 °F 30.2 °F 93% 29.02 in 1.8 mi SE 20.7 mph - 0.02 in Snow Light Snow
10:53 PM 32.0 °F 19.5 °F 30.0 °F 92% 29.02 in 1.5 mi SE 21.9 mph - 0.04 in Snow Light Snow
11:12 PM 33.8 °F 21.6 °F 30.2 °F 87% 29.00 in 2.0 mi SE 23.0 mph - 0.01 in Snow Light Snow
11:22 PM 33.8 °F 21.9 °F 30.2 °F 87% 29.01 in 1.5 mi SE 21.9 mph - 0.02 in Snow Light Snow
11:53 PM 34.0 °F 21.5 °F 30.9 °F 89% 28.98 in 2.0 mi SE 24.2 mph 33.4 mph 0.04 in Snow Light Snow
11:59 PM 33.8 °F 21.6 °F 32.0 °F 93% 28.98 in 3.0 mi SE 23.0 mph - 0.01 in Snow Light Snow